Lexington Weather

Lexington, Massachusetts, USA

50°F
12/8/2022 1:51pm 
  • Lexington Conditions: Clear
  • Temperature: 50.2°F / 10.1°CColder 0.2°F than last hour.
  • Dew Point: 36.0°FDecreased 0.1°Fsince last hour.
  • Relative Humidity: 58
  • Wind: Wind from NE NE 7 mph, 10-min avg: 4 mph, gust: 10 mph
  • Barometer: 30.06 in Steady
  • Visibility: 10 miles
  • Rain Today: 0.00 in
  •   

Warning: Undefined variable $rc in /homepages/6/d276339138/htdocs/weather/20190804/ssi/nwsProduct.php on line 323

Warning: Undefined variable $rc in /homepages/6/d276339138/htdocs/weather/20190804/ssi/nwsProduct.php on line 325

Warning: Undefined variable $rc in /homepages/6/d276339138/htdocs/weather/20190804/ssi/nwsProduct.php on line 323

Warning: Undefined variable $rc in /homepages/6/d276339138/htdocs/weather/20190804/ssi/nwsProduct.php on line 325

Warning: Undefined variable $rc in /homepages/6/d276339138/htdocs/weather/20190804/ssi/nwsProduct.php on line 323

Warning: Undefined variable $rc in /homepages/6/d276339138/htdocs/weather/20190804/ssi/nwsProduct.php on line 325

Warning: Undefined variable $rc in /homepages/6/d276339138/htdocs/weather/20190804/ssi/nwsProduct.php on line 323

Warning: Undefined variable $rc in /homepages/6/d276339138/htdocs/weather/20190804/ssi/nwsProduct.php on line 325

Warning: Undefined variable $rc in /homepages/6/d276339138/htdocs/weather/20190804/ssi/nwsProduct.php on line 323

Warning: Undefined variable $rc in /homepages/6/d276339138/htdocs/weather/20190804/ssi/nwsProduct.php on line 325

Warning: Undefined variable $rc in /homepages/6/d276339138/htdocs/weather/20190804/ssi/nwsProduct.php on line 323

Warning: Undefined variable $rc in /homepages/6/d276339138/htdocs/weather/20190804/ssi/nwsProduct.php on line 325

Warning: Undefined variable $rc in /homepages/6/d276339138/htdocs/weather/20190804/ssi/nwsProduct.php on line 323

Warning: Undefined variable $rc in /homepages/6/d276339138/htdocs/weather/20190804/ssi/nwsProduct.php on line 325

Regional Weather Roundup
for Boston, MA

        
000
ASUS41 KBOX 070410
RWRBOX

REGIONAL WEATHER ROUNDUP
NATIONAL WEATHER SERVICE BOSTON/NORTON MA
1100 PM EST TUE DEC 06 2022

NOTE:  "FAIR" INDICATES FEW OR NO CLOUDS BELOW 12,000 FEET WITH NO 
SIGNIFICANT WEATHER AND/OR OBSTRUCTIONS TO VISIBILITY.

MAZALL-070500-
EASTERN MASSACHUSETTS
  
CITY           SKY/WX    TMP DP  RH WIND       PRES   REMARKS
BOSTON         LGT RAIN  49  47  93 E9        30.39F                  
BEVERLY        CLOUDY    49  48  97 SE10      30.38F                  
LAWRENCE       RAIN      50  48  93 E7        30.40F                  
BEDFORD        LGT RAIN  51  48  89 E7        30.37F                  
NORWOOD        CLOUDY    51  48  89 E3        30.38F                  
MARSHFIELD       N/A     50  48  93 SE7       30.38F                  
PLYMOUTH       CLOUDY    51  47  86 SE7       30.37F                  
TAUNTON          N/A    N/A N/A N/A MISG      30.37S                  
NEW BEDFORD    CLOUDY    52  49  89 SE9       30.37S                  
$$

MAZALL-070500-
CAPE COD AND THE ISLANDS
  
CITY           SKY/WX    TMP DP  RH WIND       PRES   REMARKS
FALMOUTH       CLOUDY    50  46  87 SE14G23   30.39S                  
HYANNIS        LGT RAIN  51  47  86 SE10G20   30.38S                  
CHATHAM        CLOUDY    53  47  79 SE9       30.41F                  
PROVINCETOWN   LGT RAIN  51  48  89 SE10      30.40F                  
NANTUCKET      MOCLDY    53  49  86 SE15      30.39F                  
MARTHAS VNYRD  CLOUDY    53  48  83 SE13      30.38F                  
$$
 
MAZALL-070500-
CENTRAL AND WESTERN MASSACHUSETTS
  
CITY           SKY/WX    TMP DP  RH WIND       PRES   REMARKS
WORCESTER      LGT RAIN  48  46  93 VRB7      30.34S VSB 3/4          
FITCHBURG      CLOUDY    46  42  86 CALM      30.37F FOG              
ORANGE         LGT RAIN  48  46  93 SE5       30.33S FOG              
SPRINGFIELD    LGT RAIN  52  50  93 SE8       30.27F                  
WESTFIELD      LGT RAIN  44  44 100 CALM      30.29F FOG              
NORTH ADAMS    RAIN      50  48  93 VRB7      30.25F FOG              
PITTSFIELD     RAIN      51  48  89 SE13G21   30.23S FOG              
$$
 
RIZALL-070500-
RHODE ISLAND
  
CITY           SKY/WX    TMP DP  RH WIND       PRES   REMARKS
PROVIDENCE     LGT RAIN  51  48  89 SE10      30.36F                  
NEWPORT        LGT RAIN  51  48  89 SE13G20   30.35F FOG              
BLOCK ISLAND   CLOUDY    53  51  93 SE16      30.34F                  
SMITHFIELD     LGT RAIN  49  48  97 SE13      30.35F                  
WESTERLY       RAIN      53  51  93 E10       30.33F                  
$$
 
CTZALL-070500-
CONNECTICUT
  
CITY           SKY/WX    TMP DP  RH WIND       PRES   REMARKS
BRADLEY INTL   LGT RAIN  48  46  93 CALM      30.29F FOG              
HARTFORD       LGT RAIN  54  52  93 S7        30.29F                  
BRIDGEPORT     HVY RAIN  54  53  97 SE9       30.28F                  
DANBURY        LGT RAIN  56  52  86 SE10      30.26F                  
GROTON         LGT RAIN  55  52  89 E10       30.32S                  
NEW HAVEN      LGT RAIN  55  53  93 SE10      30.29F FOG              
CHESTER        LGT RAIN  54  54 100 SE10      30.31F                  
MERIDEN        LGT RAIN  54  51  90 VRB7      30.29S                  
WILLIMANTIC    LGT RAIN  51  51 100 S3        30.32F FOG              
OXFORD         LGT RAIN  52  52 100 SE14G20   30.28F                  
$$

MEZ002-015-021-024-NHZ003-005-008-011-012-014-VTZ005-008-070500-
NORTHERN NEW ENGLAND
  
CITY           SKY/WX    TMP DP  RH WIND       PRES   REMARKS
PORTLAND ME    CLOUDY    47  44  90 SE12      30.44F                  
BANGOR ME      CLOUDY    44  39  82 S7        30.51R                  
CONCORD NH     CLOUDY    48  47  96 SE9G22    30.38F                  
MANCHESTER NH  CLOUDY    50  47  89 SE7       30.37F                  
NASHUA NH      CLOUDY    49  32  52 SE8       30.39S                  
PORTSMOUTH NH  LGT RAIN  48  46  93 E10       30.40F                  
JAFFREY NH     LGT RAIN  47  44  90 VRB6      30.33F                  
KEENE NH       LGT RAIN  48  46  93 SE7         N/A                   
BURLINGTON VT  CLOUDY    51  43  74 S9        30.20F                  
MT. WASHINGTON FRZ RAIN  27  27 100 S41         N/A  VSB 0   WCI   8  
$$

NYZ052-076-070500-
EASTERN NEW YORK
  
CITY           SKY/WX    TMP DP  RH WIND       PRES   REMARKS
ALBANY         LGT RAIN  52  50  93 SE8       30.20F FOG              
NEW YORK CITY  LGT RAIN  57  53  86 SE16G23   30.23F FOG              
$$
 
ANZALL-070500-
MARINE OBSERVATIONS
  
STATION/POSITION TIME  TEMP    WIND        PRES    VSBY  WAVE
                       AIR SEA DIR/SP/G                  HT/PER
                 (UTC) (F)     (DEG/KT/KT) (MB)    (MI)  (FT/S)
BOSTON BUOY      0350      50  120/ 14/ 16 1029.4F         4/ 6
BUZZARDS BAY     0300   53     120/ 20/ 22 1028.2S
NANTUCKET SOUND  0350   52 49  120/ 14/ 17 1028.9F         2/ 3
MASS BAY-STELLWA 0204   50 50  130/ 16/ 19 1028.9F  1 7/8  4/ 5
ISLE OF SHOALS   0300   49     120/ 20/ 22 1028.9F
S OF BLOCK IS    0356      54                N/A           6/11
$$

......................KEY.........................
  SKY/WX - SKY CONDITION/PRESENT WEATHER
  TMP    - TEMPERATURE IN FAHRENHEIT
  DWPT   - DEWPOINT IN FAHRENHEIT
  RH     - RELATIVE HUMIDITY IN PERCENT
  WIND   - DIRECTION AND SPEED IN MPH
  PRES   - MEAN SEA LEVEL PRESSURE IN INCHES OF HG
  WCI    - WIND CHILL INDEX
  VSB    - VISIBILITY IN MILES
  HX     - HEAT INDEX
  TC     - TEMPERATURE IN CELSIUS
  VRB    - VARIABLE WIND DIRECTION
  N/A    - NOT AVAILABLE
  
      

Other recent Regional Weather Roundups

Thu Dec 8, 1:10pm

Thu Dec 8, 12:10pm

Thu Dec 8, 11:10am

Thu Dec 8, 10:10am

Thu Dec 8, 9:10am

Thu Dec 8, 8:10am

Thu Dec 8, 7:10am

Thu Dec 8, 6:10am

Thu Dec 8, 5:10am

Thu Dec 8, 4:10am

Thu Dec 8, 3:10am

Thu Dec 8, 2:10am

Thu Dec 8, 1:10am

Thu Dec 8, 12:10am

Wed Dec 7, 11:10pm

Wed Dec 7, 10:10pm

Wed Dec 7, 9:10pm

Wed Dec 7, 8:10pm

Wed Dec 7, 7:10pm

Wed Dec 7, 6:10pm

Wed Dec 7, 5:10pm

Wed Dec 7, 4:10pm

Wed Dec 7, 3:10pm

Wed Dec 7, 2:10pm

Wed Dec 7, 1:10pm

Wed Dec 7, 12:10pm

Wed Dec 7, 11:10am

Wed Dec 7, 10:10am

Wed Dec 7, 9:10am

Wed Dec 7, 8:10am

Wed Dec 7, 7:10am

Wed Dec 7, 6:10am

Wed Dec 7, 5:10am

Wed Dec 7, 4:10am

Wed Dec 7, 3:10am

Wed Dec 7, 2:10am

Wed Dec 7, 1:10am

Wed Dec 7, 12:10am

Tue Dec 6, 10:10pm

Tue Dec 6, 9:10pm

Tue Dec 6, 8:10pm

Tue Dec 6, 7:10pm

Tue Dec 6, 6:10pm

Tue Dec 6, 5:10pm

Tue Dec 6, 4:10pm

Tue Dec 6, 3:10pm

Tue Dec 6, 2:10pm

Tue Dec 6, 1:10pm

Tue Dec 6, 12:10pm

Tue Dec 6, 11:10am

Tue Dec 6, 10:10am

Tue Dec 6, 9:10am

Tue Dec 6, 8:10am

Tue Dec 6, 7:10am

Tue Dec 6, 6:10am

Tue Dec 6, 5:10am

Tue Dec 6, 4:10am

Tue Dec 6, 3:10am

Tue Dec 6, 2:10am

Tue Dec 6, 1:10am

Tue Dec 6, 12:10am

Mon Dec 5, 11:10pm

Mon Dec 5, 10:10pm

Mon Dec 5, 9:10pm

Mon Dec 5, 8:10pm

Mon Dec 5, 7:10pm

Mon Dec 5, 6:10pm

Mon Dec 5, 5:10pm

Mon Dec 5, 4:10pm

Mon Dec 5, 3:10pm

Mon Dec 5, 2:10pm

Mon Dec 5, 1:10pm

Mon Dec 5, 12:10pm

Mon Dec 5, 11:10am

Mon Dec 5, 10:10am

Mon Dec 5, 9:10am

Mon Dec 5, 8:10am

Mon Dec 5, 7:10am

Mon Dec 5, 6:10am

Mon Dec 5, 5:10am

Mon Dec 5, 4:10am

Mon Dec 5, 3:10am

Mon Dec 5, 2:10am

Mon Dec 5, 1:10am

Mon Dec 5, 12:10am

Sun Dec 4, 11:10pm

Sun Dec 4, 10:10pm

Sun Dec 4, 9:10pm

Sun Dec 4, 8:10pm

Sun Dec 4, 7:10pm

Sun Dec 4, 6:10pm

Sun Dec 4, 5:10pm

Sun Dec 4, 4:10pm

Sun Dec 4, 3:10pm

Sun Dec 4, 2:10pm

Sun Dec 4, 1:10pm

Sun Dec 4, 12:10pm

Sun Dec 4, 11:10am

Sun Dec 4, 10:10am

Sun Dec 4, 9:10am

Sun Dec 4, 8:10am

Sun Dec 4, 7:10am

Sun Dec 4, 6:10am

Sun Dec 4, 5:10am

Sun Dec 4, 4:10am

Sun Dec 4, 3:10am

Sun Dec 4, 2:10am

Sun Dec 4, 1:10am

Sun Dec 4, 12:10am

Sat Dec 3, 11:10pm

Sat Dec 3, 10:10pm

Sat Dec 3, 9:10pm

Sat Dec 3, 8:10pm

Sat Dec 3, 7:10pm

Sat Dec 3, 6:10pm

Sat Dec 3, 5:10pm

Sat Dec 3, 4:10pm

Sat Dec 3, 3:10pm

Sat Dec 3, 2:10pm

Sat Dec 3, 1:10pm

Sat Dec 3, 12:10pm

Sat Dec 3, 11:10am

Sat Dec 3, 10:10am

Sat Dec 3, 9:10am

Sat Dec 3, 8:10am

Sat Dec 3, 7:10am

Sat Dec 3, 6:10am

Sat Dec 3, 5:10am

Sat Dec 3, 4:10am

Sat Dec 3, 3:10am

Sat Dec 3, 2:10am

Sat Dec 3, 1:10am

Sat Dec 3, 12:10am

Fri Dec 2, 11:10pm

Fri Dec 2, 10:10pm

Fri Dec 2, 9:10pm

Fri Dec 2, 8:10pm

Fri Dec 2, 7:10pm

Fri Dec 2, 6:10pm

Fri Dec 2, 5:10pm

Fri Dec 2, 4:10pm

Fri Dec 2, 3:10pm

Fri Dec 2, 2:10pm

Fri Dec 2, 1:10pm

Fri Dec 2, 12:10pm

Fri Dec 2, 11:10am

Fri Dec 2, 10:10am

Fri Dec 2, 9:10am

Fri Dec 2, 8:10am

Fri Dec 2, 7:10am

Fri Dec 2, 6:10am

Fri Dec 2, 5:10am

Fri Dec 2, 4:10am

Fri Dec 2, 3:10am

Fri Dec 2, 2:10am

Fri Dec 2, 1:10am

Fri Dec 2, 12:10am

Thu Dec 1, 11:10pm

Thu Dec 1, 10:10pm

Thu Dec 1, 9:10pm

Thu Dec 1, 8:10pm

Thu Dec 1, 7:10pm

Thu Dec 1, 6:10pm

Thu Dec 1, 5:10pm

Thu Dec 1, 4:10pm

Thu Dec 1, 3:10pm

Thu Dec 1, 2:10pm

Meta data:

ID: 61ace8fd-c741-44bb-b580-e84d11194bd1
Link: https://api.weather.gov/products/61ace8fd-c741-44bb-b580-e84d11194bd1